User: anonymous   Login
Location: Caltech
(34.1382°N, 118.1253°W)
Time: 18:42:02
(UTC-07:00)
Language:

Cosmos 1939 Rocket - Orbit

View from above orbital plane
View from above orbital plane
View from above satellite
View from above satellite

Ground track
Ground track

The orbit data is extracted from the following two-line orbital elements,

1 19046U 88032B   15111.17680584  .00003633  00000-0  28440-3 0  9995
2 19046 097.6190 164.8387 0042876 133.9140 226.5637 15.00921339454376
Epoch (UTC): 21 April 2015 04:14:36
Eccentricity: 0.0042876
inclination: 97.6190°
perigee height: 534 km
apogee height: 594 km
right ascension of ascending node: 164.8387°
argument of perigee: 133.9140°
revolutions per day: 15.00921339
mean anomaly at epoch: 226.5637°
orbit number at epoch: 45437

The dashed part of the orbit path shows where the satellite is in the earth's shadow,  

DLR